CAPE
0 0 0 0 0 0 0 0 0 0 0 0 0 0 0 0 0 0 0 0 0 0 2 3 4 3 3
0 0 0 0 0 0 0 0 0 0 0 0 0 0 0 0 0 0 0 0 0 1 2 2 4 5 5
0 0 0 0 0 0 0 0 0 0 0 0 0 0 0 0 0 0 0 0 0 1 1 2 5 8 9
0 0 0 0 0 0 0 0 0 0 0 0 0 0 0 0 0 0 0 1 2 3 3 2 4 4 5
0 0 0 0 0 0 0 0 0 0 0 0 0 0 0 0 0 0 0 0 0 0 2 2 2 3 6
0 0 0 0 0 0 0 0 0 0 0 0 0 0 0 0 0 0 0 0 0 1 2 3 4 7 8
0 0 0 0 0 0 0 0 0 0 0 0 0 0 0 0 0 0 0 0 0 0 1 4 7 11 14
0 0 0 0 0 0 0 0 0 0 0 0 0 0 0 0 0 0 0 0 0 0 5 9 12 15 19
18 12 5 8 0 0 0 0 0 0 0 0 0 0 0 0 0 0 0 0 1 5 9 11 10 12 3
0 0 6 3 18 2 0 0 0 0 0 0 0 0 0 0 0 0 0 0 2 2 1 1 6 0 0
0 0 0 0 0 0 0 0 0 0 0 0 0 0 0 0 0 0 0 0 0 0 0 0 2 2 0
0 0 0 0 0 0 0 0 0 0 0 0 0 0 0 0 0 0 0 0 0 0 0 0 1 7 9
0 0 0 0 0 0 0 0 0 0 0 0 0 0 0 0 0 0 0 0 0 0 0 0 0 0 0
0 3 0 1 0 0 0 0 0 0 0 0 0 0 0 0 0 0 0 0 0 0 0 0 0 0 0
2 0 0 0 0 4 0 0 0 0 1 0 0 0 0 0 0 0 0 0 0 0 0 0 0 0 0
0 0 0 0 0 0 0 0 0 0 0 0 0 2 0 0 4 5 0 0 0 0 0 0 0 0 0
0 0 0 0 0 0 0 0 0 0 0 0 1 9 2 0 0 14 0 0 0 0 0 0 0 0 0
CIN
-0 -0 -0 -0 -0 -0 -0 -0 -0 -0 -0 -0 -0 -0 -0 -0 -0 -0 -0 -0 -0 -0 -0 -0 -0 -0 -0
-0 -0 -0 -0 -0 -0 -0 -0 -0 -0 -0 -0 -0 -0 -0 -0 -0 -0 -0 -0 -0 -0 -0 -0 -0 -0 -0
-0 -0 -0 -0 -0 -0 -0 -0 -0 -0 -0 -0 -0 -0 -0 -0 -0 -0 -0 -0 -0 -0 -0 -0 -0 -0 -0
-0 -0 -0 -0 -0 -0 -0 -0 -0 -0 -0 -0 -0 -0 -0 -0 -0 -0 -0 -0 -0 -0 -0 -0 -0 -0 -0
-0 -0 -0 -0 -0 -0 -0 -0 -0 -0 -0 -0 -0 -0 -0 -0 -0 -0 -0 -0 -0 -0 -0 -0 -0 -0 -0
-0 -0 -0 -0 -0 -0 -0 -0 -0 -0 -0 -0 -0 -0 -0 -0 -0 -0 -0 -0 -0 -0 -0 -0 -0 -0 -0
-0 -0 -0 -0 -0 -0 -0 -0 -0 -0 -0 -0 -0 -0 -0 -0 -0 -0 -0 -0 -0 -0 -0 -0 -0 -0 -0
-0 -0 -0 -0 -0 -0 -0 -0 -0 -0 -0 -0 -0 -0 -0 -0 -0 -0 -0 -0 -0 -0 -0 -0 -0 -0 -0
-0 -0 -0 -0 -1 -0 -0 -0 -0 -0 -0 -0 -0 -0 -0 -0 -0 -0 -0 -0 -0 -0 -0 -0 -0 -0 -0
-0 -0 -0 -2 -0 -2 -0 -0 -0 -0 -0 -0 -0 -0 -0 -0 -0 -0 -0 -0 -0 -0 -0 -0 -0 -0 -0
-0 -0 -0 -0 -0 -0 -0 -1 -0 -0 -0 -0 -0 -0 -0 -0 -0 -0 -0 -0 -0 -0 -0 -0 -0 -0 -0
-0 -0 -0 -0 -0 -0 -0 -0 -0 -0 -0 -0 -2 -0 -0 -0 -0 -0 -0 -0 -0 -0 -0 -0 -0 -0 -0
-0 -0 -0 -0 -0 -0 -0 -0 -0 -0 -0 -0 -0 -0 -0 -0 -0 -0 -0 -0 -0 -0 -0 -0 -0 -0 -0
-0 -0 -0 -0 -0 -3 -0 -0 -0 -0 -0 -0 -0 -0 -0 -0 -0 -0 -0 -0 -0 -0 -0 -0 -0 -0 -0
-0 -0 -0 -0 -0 -0 -0 -0 -0 -0 -0 -0 -0 -0 -0 -0 -0 -0 -0 -0 -0 -0 -0 -0 -0 -0 -0
-0 -0 -0 -0 -0 -0 -1 -0 -0 -0 -0 -5 -0 -4 -0 -0 -0 -1 -0 -0 -0 -0 -0 -0 -0 -0 -0
-0 -0 -0 -0 -0 -0 -0 -0 -0 -0 -0 -0 -9 -1 -1 -0 -0 -3 -0 -0 -0 -0 -7 -0 -0 -0 -0
Wind_Speed
3 8 5 7 5 4 4 4 3 4 4 4 4 6 6 7 7 7 8 8 9 11 11 9 9 7 9
6 3 4 5 5 4 3 3 4 5 6 6 7 8 9 10 10 9 10 10 11 12 12 9 10 11 12
5 2 2 3 3 3 4 4 3 7 9 8 9 10 12 11 12 12 12 12 13 14 13 12 12 13 14
6 4 3 3 3 3 3 4 4 5 9 8 9 9 11 13 13 13 14 14 15 14 14 14 14 15 17
3 3 3 4 5 3 4 3 4 4 3 3 2 2 5 10 10 13 12 13 14 14 14 15 16 17 19
3 4 5 4 4 4 4 3 3 4 4 3 4 4 4 4 10 13 14 14 14 15 16 17 18 18 19
4 5 6 6 5 5 5 4 4 3 2 3 2 4 4 5 14 15 17 19 18 18 17 18 19 19 20
5 4 3 4 4 5 5 4 2 3 4 4 3 4 3 4 16 20 19 19 18 18 19 19 19 20 21
12 11 12 14 12 3 2 3 2 3 3 5 6 5 5 6 6 19 20 19 20 19 19 18 20 21 14
7 13 16 14 21 13 5 6 6 3 6 7 7 4 4 6 7 6 6 17 17 16 16 16 18 8 5
8 7 7 7 6 7 8 8 8 10 6 6 5 6 8 6 2 3 3 3 3 6 16 20 22 20 8
7 8 8 8 8 10 12 11 10 12 7 11 6 7 7 6 6 4 4 4 4 7 5 12 22 22 22
4 6 8 7 8 7 8 11 12 12 10 11 10 9 8 8 7 7 7 5 6 6 6 7 5 5 9
1 2 0 3 7 7 8 8 10 10 13 14 11 10 8 8 8 8 7 7 4 5 6 6 6 8 11
3 3 4 4 4 3 2 3 4 4 6 8 11 11 9 11 9 9 9 8 6 6 6 8 9 10 10
5 5 6 6 5 3 3 3 3 2 3 3 5 6 8 10 17 9 7 5 4 7 8 10 12 10 9
3 3 4 4 7 3 4 5 5 5 4 1 4 9 12 11 2 15 6 5 7 8 7 7 9 8 9
Wind_Direction
123 141 130 142 141 160 168 170 215 241 218 222 252 266 270 268 268 273 277 281 285 285 278 280 284 297 304
129 129 129 142 155 161 169 204 174 236 231 227 248 266 269 269 268 268 271 275 279 282 284 282 279 279 287
129 114 113 145 143 171 190 218 224 236 245 244 258 263 265 269 271 271 275 275 274 274 273 275 278 283 286
128 134 135 173 152 167 210 210 219 223 233 214 225 245 259 267 273 277 276 275 271 272 276 277 280 283 283
133 136 163 151 184 181 202 203 234 201 213 227 220 234 254 267 265 257 262 269 268 271 274 276 278 280 281
155 171 181 183 170 192 173 175 234 226 197 229 203 217 231 211 241 251 256 260 261 265 273 277 277 278 280
189 187 177 185 172 186 195 187 194 226 110 240 230 237 232 243 261 269 274 273 271 272 272 273 275 276 276
191 220 220 217 205 190 194 209 207 217 174 243 212 230 227 236 267 269 267 268 266 265 267 271 273 276 278
234 212 230 236 225 127 195 132 261 217 207 239 231 245 241 243 232 256 262 260 263 260 264 272 280 284 286
244 255 251 244 245 240 186 216 221 241 216 235 241 237 257 225 228 232 246 264 263 270 272 273 274 278 269
222 225 228 232 233 241 232 213 220 234 217 209 206 227 235 253 218 206 194 238 253 267 273 276 280 280 273
224 221 224 225 224 224 230 234 234 239 224 230 241 236 246 253 245 222 235 232 232 250 238 259 268 270 278
214 207 221 235 240 244 241 236 240 242 241 228 235 243 244 250 251 237 231 222 231 243 246 240 244 257 271
284 334 42 286 246 220 221 224 231 238 237 235 233 232 240 242 243 244 237 236 210 229 236 248 260 261 261
231 230 240 255 238 242 300 252 260 266 252 241 238 233 235 240 248 248 247 244 227 226 245 262 263 265 266
225 223 236 239 246 249 231 206 208 226 237 215 214 237 246 242 236 248 232 221 229 245 254 265 267 262 261
199 189 201 202 253 210 227 247 256 247 246 244 258 234 237 239 212 225 235 235 247 251 247 248 264 264 265